Glencoe, MN

10:47 AM CST on November 18, 2017 (GMT -0600)
Glencoe Municipal

Weather History for KGYL - December, 2013

Change the Weather History Date:

Thursday, December 12, 2013

  Actual Average (KHCD) Record (KHCD)
Temperature  
Mean Temperature 10 °F -  
Max Temperature 18 °F 27 °F 50 °F (1980)
Min Temperature 2 °F 11 °F -14 °F (2000)
Degree Days  
Heating Degree Days 55    
Moisture  
Dew Point 4 °F    
Average Humidity 74    
Maximum Humidity 81    
Minimum Humidity 63    
Precipitation  
Precipitation 0.00 in - - ()
Sea Level Pressure  
Sea Level Pressure 30.19 in    
Wind  
Wind Speed 4 mph (SW)    
Max Wind Speed 9 mph    
Max Gust Speed -    
Visibility 10 miles    
Events      
Averages and records for this station are not official NWS values.
T = Trace of Precipitation, MM = Missing Value Source: NWS Daily Summary

Daily Weather History Graph

Daily Weather History Graph

Search for Another Location

Airport or City:

Trip Planner

Search our weather history database for the weather conditions in past years. The results will help you decide how hot, cold, wet, or windy it might be!

Date:

Astronomy

Dec. 12, 2013 Rise Set
Actual Time 7:44 AM CST 4:35 PM CST
Civil Twilight 7:11 AM CST 5:09 PM CST
Nautical Twilight 6:34 AM CST 5:46 PM CST
Astronomical Twilight 5:58 AM CST 6:21 PM CST
Moon 1:51 PM CST (12/12) 2:59 AM CST (12/12)
Length of Visible Light 9h 58m
Length of Day
8h 50m
Waxing Gibbous, 80% of the Moon is Illuminated
Dec 12
Waxing Gibbous
Dec 17
Full
Dec 25
Last Quarter
Jan 1
New
Jan 7
First Quarter

Hourly Weather History & Observations

Time (CST) Temp. Windchill Dew Point Humidity Pressure Visibility Wind Dir Wind Speed Gust Speed Precip Events Conditions
12:13 AM 3.7 °F -10.6 °F -4.5 °F 69% 30.25 in 10.0 mi South 9.2 mph - N/A   Overcast
12:34 AM 4.1 °F -9.2 °F -3.6 °F 70% 30.24 in 10.0 mi South 8.1 mph - N/A   Overcast
12:53 AM 4.1 °F -5.1 °F -4.0 °F 69% 30.24 in 10.0 mi South 4.6 mph - N/A   Overcast
1:13 AM 4.5 °F -2.7 °F -3.3 °F 70% 30.23 in 10.0 mi South 3.5 mph - N/A   Overcast
1:34 AM 5.0 °F -4.1 °F -2.4 °F 72% 30.22 in 10.0 mi South 4.6 mph - N/A   Overcast
1:53 AM 5.2 °F -3.8 °F -2.2 °F 72% 30.21 in 10.0 mi South 4.6 mph - N/A   Overcast
2:13 AM 5.0 °F -6.9 °F -2.2 °F 72% 30.20 in 10.0 mi South 6.9 mph - N/A   Mostly Cloudy
2:33 AM 4.6 °F -6.0 °F -2.6 °F 72% 30.21 in 10.0 mi South 5.8 mph - N/A   Scattered Clouds
2:53 AM 3.7 °F -7.1 °F -3.3 °F 73% 30.21 in 10.0 mi South 5.8 mph - N/A   Clear
3:13 AM 3.2 °F -7.8 °F -3.3 °F 74% 30.21 in 10.0 mi SSW 5.8 mph - N/A   Clear
3:33 AM 2.5 °F -8.6 °F -3.8 °F 75% 30.21 in 10.0 mi South 5.8 mph - N/A   Clear
3:53 AM 2.1 °F -7.4 °F -4.0 °F 76% 30.21 in 10.0 mi SSW 4.6 mph - N/A   Clear
4:13 AM 3.4 °F -7.5 °F -2.4 °F 77% 30.21 in 10.0 mi SSW 5.8 mph - N/A   Clear
4:33 AM 3.0 °F -4.4 °F -2.7 °F 77% 30.21 in 10.0 mi SSW 3.5 mph - N/A   Clear
4:53 AM 4.5 °F -2.7 °F -0.8 °F 79% 30.21 in 10.0 mi SW 3.5 mph - N/A   Clear
5:13 AM 4.8 °F -2.3 °F -0.8 °F 78% 30.21 in 10.0 mi WSW 3.5 mph - N/A   Clear
5:33 AM 7.2 °F -1.5 °F 2.1 °F 80% 30.22 in 10.0 mi WSW 4.6 mph - N/A   Clear
5:53 AM 9.1 °F 0.8 °F 3.7 °F 79% 30.22 in 10.0 mi WSW 4.6 mph - N/A   Clear
6:13 AM 9.3 °F -1.7 °F 3.7 °F 78% 30.22 in 10.0 mi West 6.9 mph - N/A   Scattered Clouds
6:33 AM 9.7 °F -1.3 °F 3.7 °F 77% 30.22 in 10.0 mi West 6.9 mph - N/A   Scattered Clouds
6:53 AM 9.1 °F 0.8 °F 3.2 °F 77% 30.22 in 10.0 mi West 4.6 mph - N/A   Scattered Clouds
7:13 AM 8.6 °F -2.6 °F 2.8 °F 77% 30.22 in 10.0 mi WNW 6.9 mph - N/A   Clear
7:33 AM 8.8 °F 0.4 °F 3.0 °F 77% 30.23 in 10.0 mi West 4.6 mph - N/A   Clear
7:53 AM 8.6 °F - 2.7 °F 77% 30.23 in 10.0 mi Calm Calm - N/A   Clear
8:13 AM 8.1 °F - 2.5 °F 78% 30.24 in 10.0 mi Calm Calm - N/A   Clear
8:33 AM 9.0 °F 2.4 °F 3.2 °F 77% 30.25 in 10.0 mi WSW 3.5 mph - N/A   Clear
8:53 AM 9.3 °F 2.8 °F 3.7 °F 78% 30.25 in 10.0 mi WSW 3.5 mph - N/A   Clear
9:13 AM 10.4 °F 2.2 °F 3.7 °F 74% 30.24 in 10.0 mi SW 4.6 mph - N/A   Clear
9:33 AM 11.3 °F - 4.1 °F 73% 30.25 in 10.0 mi Calm Calm - N/A   Clear
9:53 AM 12.0 °F 5.9 °F 4.5 °F 72% 30.26 in 10.0 mi WSW 3.5 mph - N/A   Clear
10:13 AM 12.7 °F 6.7 °F 4.8 °F 71% 30.27 in 10.0 mi WSW 3.5 mph - N/A   Clear
10:33 AM 13.8 °F 4.9 °F 5.5 °F 70% 30.27 in 10.0 mi WSW 5.8 mph - N/A   Clear
10:53 AM 14.4 °F 8.6 °F 5.9 °F 69% 30.26 in 10.0 mi West 3.5 mph - N/A   Mostly Cloudy
11:13 AM 14.5 °F - 5.9 °F 69% 30.25 in 10.0 mi Calm Calm - N/A   Overcast
11:34 AM 15.6 °F 8.3 °F 6.1 °F 66% 30.24 in 10.0 mi WSW 4.6 mph - N/A   Mostly Cloudy
11:53 AM 15.8 °F 10.2 °F 5.9 °F 65% 30.24 in 10.0 mi West 3.5 mph - N/A   Scattered Clouds
12:13 PM 16.2 °F 10.6 °F 6.1 °F 65% 30.23 in 10.0 mi WSW 3.5 mph - N/A   Clear
12:34 PM 16.5 °F 11.0 °F 6.8 °F 66% 30.22 in 10.0 mi WSW 3.5 mph - N/A   Clear
12:53 PM 17.8 °F 9.6 °F 8.1 °F 66% 30.22 in 10.0 mi SW 5.8 mph - N/A   Clear
1:13 PM 18.1 °F 11.3 °F 7.3 °F 63% 30.21 in 10.0 mi SW 4.6 mph - N/A   Scattered Clouds
1:34 PM 18.3 °F 11.5 °F 7.7 °F 63% 30.20 in 10.0 mi SSW 4.6 mph - N/A   Scattered Clouds
1:53 PM 17.6 °F 9.3 °F 7.5 °F 65% 30.18 in 10.0 mi SSW 5.8 mph - N/A   Clear
2:13 PM 16.7 °F 8.3 °F 7.7 °F 68% 30.17 in 10.0 mi SSW 5.8 mph - N/A   Clear
2:33 PM 17.2 °F 6.8 °F 8.4 °F 68% 30.17 in 10.0 mi SSW 8.1 mph - N/A   Clear
2:53 PM 17.4 °F 10.4 °F 8.1 °F 67% 30.17 in 10.0 mi SW 4.6 mph - N/A   Clear
3:13 PM 17.2 °F - 8.1 °F 67% 30.17 in 10.0 mi Calm Calm - N/A   Clear
3:33 PM 16.7 °F - 8.2 °F 69% 30.17 in 10.0 mi Calm Calm - N/A   Clear
3:53 PM 16.7 °F - 7.7 °F 68% 30.17 in 10.0 mi Calm Calm - N/A   Clear
4:13 PM 16.5 °F - 8.2 °F 70% 30.17 in 10.0 mi Calm Calm - N/A   Scattered Clouds
4:33 PM 16.3 °F - 8.4 °F 71% 30.18 in 10.0 mi Calm Calm - N/A   Overcast
4:53 PM 15.8 °F - 8.6 °F 73% 30.17 in 10.0 mi Calm Calm - N/A   Mostly Cloudy
5:13 PM 15.4 °F - 8.4 °F 74% 30.16 in 10.0 mi Calm Calm - N/A   Scattered Clouds
5:33 PM 14.7 °F - 8.1 °F 75% 30.16 in 10.0 mi Calm Calm - N/A   Clear
5:53 PM 14.9 °F - 8.1 °F 74% 30.15 in 10.0 mi Calm Calm - N/A   Scattered Clouds
6:13 PM 14.0 °F - 7.7 °F 76% 30.15 in 10.0 mi Calm Calm - N/A   Scattered Clouds
6:33 PM 13.6 °F - 7.9 °F 78% 30.15 in 10.0 mi Calm Calm - N/A   Scattered Clouds
6:53 PM 14.0 °F - 7.7 °F 76% 30.15 in 10.0 mi Calm Calm - N/A   Clear
7:13 PM 14.2 °F - 8.4 °F 78% 30.13 in 10.0 mi Calm Calm - N/A   Clear
7:33 PM 14.0 °F - 8.2 °F 78% 30.13 in 10.0 mi Calm Calm - N/A   Mostly Cloudy
7:53 PM 14.0 °F - 8.1 °F 77% 30.12 in 10.0 mi Calm Calm - N/A   Overcast
8:13 PM 14.0 °F 8.2 °F 8.4 °F 78% 30.11 in 10.0 mi ESE 3.5 mph - N/A   Mostly Cloudy
8:33 PM 13.5 °F - 8.2 °F 80% 30.12 in 10.0 mi Calm Calm - N/A   Overcast
8:53 PM 13.6 °F - 8.2 °F 79% 30.12 in 10.0 mi Calm Calm - N/A   Overcast
9:13 PM 13.1 °F - 7.5 °F 78% 30.11 in 10.0 mi Calm Calm - N/A   Overcast
9:33 PM 13.5 °F - 7.7 °F 78% 30.11 in 10.0 mi Calm Calm - N/A   Mostly Cloudy
9:54 PM 11.5 °F - 6.6 °F 81% 30.11 in 10.0 mi Calm Calm - N/A   Clear
10:13 PM 12.6 °F - 7.5 °F 80% 30.11 in 10.0 mi Calm Calm - N/A   Clear
10:33 PM 14.4 °F 8.6 °F 8.6 °F 78% 30.11 in 10.0 mi NNE 3.5 mph - N/A   Clear
10:53 PM 14.9 °F 7.5 °F 8.8 °F 77% 30.11 in 10.0 mi NNE 4.6 mph - N/A   Mostly Cloudy
11:13 PM 14.2 °F - 8.2 °F 77% 30.11 in 10.0 mi Calm Calm - N/A   Mostly Cloudy
11:33 PM 14.0 °F - 8.4 °F 78% 30.12 in 10.0 mi Calm Calm - N/A   Clear
11:53 PM 13.6 °F - 8.1 °F 78% 30.12 in 10.0 mi Calm Calm - N/A   Clear